Weather History for Murray, KY

Change the Weather History Date:

Saturday, January 12, 2013

  Actual Average (KPAH) Record (KPAH)
Temperature  
Mean Temperature 62 °F 34 °F  
Max Temperature 68 °F 43 °F 69 °F (1995)
Min Temperature 57 °F 26 °F -2 °F (1977)
Degree Days  
Heating Degree Days 2 31  
Month to date heating degree days 369  
Since 1 July heating degree days 2000  
Cooling Degree Days 0 0  
Month to date cooling degree days 0  
Year to date cooling degree days 0  
Growing Degree Days 12 (Base 50)    
Moisture  
Dew Point 62 °F    
Average Humidity 92    
Maximum Humidity 100    
Minimum Humidity 83    
Precipitation  
Precipitation 0.00 in 0.11 in 3.16 in (2013)
Month to date precipitation 1.43  
Year to date precipitation 1.43  
Snow  
Snow 0.00 in 0.10 in 4.00 in (1982)
Month to date snowfall 1.1  
Since 1 July snowfall 3.4  
Snow Depth -    
Sea Level Pressure  
Sea Level Pressure 29.90 in    
Wind  
Wind Speed 9 mph (South)    
Max Wind Speed 20 mph    
Max Gust Speed 37 mph    
Visibility 10 miles    
Events      
T = Trace of Precipitation, MM = Missing Value Source: NWS Daily Summary

Daily Weather History Graph

Daily Weather History Graph

Search for Another Location

Airport:

Trip Planner

Search our weather history database for the weather conditions in past years. The results will help you decide how hot, cold, wet, or windy it might be!

Date:

Astronomy

Jan. 12, 2013 Rise Set
Actual Time 7:05 AM CST 4:58 PM CST
Civil Twilight 6:37 AM CST 5:26 PM CST
Nautical Twilight 6:05 AM CST 5:58 PM CST
Astronomical Twilight 5:34 AM CST 6:29 PM CST
Moon 7:27 AM CST (1/12) 6:23 PM CST (1/12)
Length of Visible Light 10h 49m
Length of Day
9h 52m
New Moon, 1% of the Moon is Illuminated
Jan 12
New Moon
Jan 18
First Quarter
Jan 26
Full
Feb 3
Last Quarter
Feb 10
New

Hourly Weather History & Observations

Time (CST) Temp. Dew Point Humidity Pressure Visibility Wind Dir Wind Speed Gust Speed Precip Events Conditions
12:15 AM 57.2 °F 57.2 °F 100% 29.95 in 10.0 mi South 10.4 mph 16.1 mph N/A   Clear
12:35 AM 59.0 °F 57.2 °F 94% 29.95 in 10.0 mi South 11.5 mph 19.6 mph N/A   Clear
12:55 AM 59.0 °F 57.2 °F 94% 29.96 in 10.0 mi South 9.2 mph 17.3 mph N/A   Clear
1:15 AM 59.0 °F 57.2 °F 94% 29.96 in 10.0 mi South 8.1 mph - N/A   Clear
1:35 AM 59.0 °F 57.2 °F 94% 29.96 in 10.0 mi South 9.2 mph - N/A   Scattered Clouds
1:55 AM 59.0 °F 59.0 °F 100% 29.96 in 10.0 mi South 10.4 mph 16.1 mph N/A   Overcast
2:15 AM 60.8 °F 59.0 °F 94% 29.97 in 10.0 mi SSW 10.4 mph - N/A   Mostly Cloudy
2:55 AM 60.8 °F 59.0 °F 94% 29.96 in 10.0 mi SSW 6.9 mph - N/A   Mostly Cloudy
3:15 AM 60.8 °F 59.0 °F 94% 29.97 in 10.0 mi SSW 8.1 mph - N/A   Mostly Cloudy
3:35 AM 62.6 °F 60.8 °F 94% 29.96 in 10.0 mi SSW 8.1 mph - N/A   Overcast
3:55 AM 62.6 °F 60.8 °F 94% 29.96 in 10.0 mi SSW 5.8 mph - N/A   Overcast
4:15 AM 62.6 °F 60.8 °F 94% 29.96 in 10.0 mi SSW 6.9 mph - N/A   Overcast
4:35 AM 62.6 °F 60.8 °F 94% 29.96 in 10.0 mi SSW 5.8 mph - N/A   Overcast
4:55 AM 62.6 °F 60.8 °F 94% 29.96 in 10.0 mi SSW 5.8 mph - N/A   Overcast
5:15 AM 62.6 °F 60.8 °F 94% 29.97 in 10.0 mi South 5.8 mph - N/A   Overcast
5:35 AM 62.6 °F 60.8 °F 94% 29.97 in 10.0 mi South 5.8 mph - N/A   Overcast
5:55 AM 62.6 °F 60.8 °F 94% 29.96 in 10.0 mi South 5.8 mph - N/A   Overcast
6:15 AM 62.6 °F 62.6 °F 100% 29.97 in 10.0 mi South 6.9 mph - N/A   Overcast
6:35 AM 62.6 °F 62.6 °F 100% 29.98 in 10.0 mi South 5.8 mph - N/A   Overcast
6:55 AM 62.6 °F 62.6 °F 100% 29.99 in 10.0 mi South 5.8 mph - N/A   Overcast
7:15 AM 62.6 °F 62.6 °F 100% 29.99 in 9.0 mi South 4.6 mph - N/A   Overcast
7:35 AM 62.6 °F 62.6 °F 100% 29.99 in 8.0 mi South 4.6 mph - N/A   Overcast
7:55 AM 62.6 °F 62.6 °F 100% 29.98 in 5.0 mi South 4.6 mph - N/A   Mostly Cloudy
8:15 AM 62.6 °F 62.6 °F 100% 29.98 in 6.0 mi South 4.6 mph - N/A   Overcast
8:35 AM 62.6 °F 62.6 °F 100% 29.98 in 8.0 mi South 6.9 mph - N/A   Overcast
8:55 AM 62.6 °F 62.6 °F 100% 29.98 in 9.0 mi SSE 6.9 mph - N/A   Overcast
9:15 AM 64.4 °F 64.4 °F 100% 29.98 in 10.0 mi SSE 5.8 mph - N/A   Mostly Cloudy
9:35 AM 66.2 °F 64.4 °F 94% 29.98 in 10.0 mi South 9.2 mph - N/A   Overcast
9:55 AM 66.2 °F 64.4 °F 94% 29.98 in 10.0 mi South 6.9 mph - N/A   Overcast
10:15 AM 66.2 °F 64.4 °F 94% 29.97 in 10.0 mi South 8.1 mph - N/A   Overcast
10:35 AM 66.2 °F 64.4 °F 94% 29.97 in 10.0 mi South 9.2 mph - N/A   Overcast
10:55 AM 66.2 °F 64.4 °F 94% 29.97 in 10.0 mi South 6.9 mph - N/A   Overcast
11:15 AM 66.2 °F 64.4 °F 94% 29.95 in 10.0 mi South 5.8 mph - N/A   Overcast
11:35 AM 68.0 °F 64.4 °F 88% 29.94 in 10.0 mi South 10.4 mph 17.3 mph N/A   Overcast
11:55 AM 68.0 °F 64.4 °F 88% 29.93 in 10.0 mi South 10.4 mph 16.1 mph N/A   Overcast
12:35 PM 68.0 °F 64.4 °F 88% 29.90 in 10.0 mi South 9.2 mph - N/A   Overcast
12:55 PM 68.0 °F 64.4 °F 88% 29.89 in 10.0 mi SE 9.2 mph 17.3 mph N/A   Overcast
1:15 PM 66.2 °F 64.4 °F 94% 29.87 in 10.0 mi SSE 8.1 mph 16.1 mph N/A   Overcast
1:35 PM 66.2 °F 64.4 °F 94% 29.86 in 10.0 mi SSE 11.5 mph 20.7 mph N/A   Overcast
1:55 PM 66.2 °F 64.4 °F 94% 29.85 in 10.0 mi SSE 10.4 mph 21.9 mph N/A   Overcast
2:15 PM 66.2 °F 64.4 °F 94% 29.86 in 9.0 mi South 15.0 mph 20.7 mph N/A   Overcast
2:35 PM 66.2 °F 64.4 °F 94% 29.85 in 10.0 mi South 13.8 mph 23.0 mph N/A   Mostly Cloudy
2:55 PM 68.0 °F 64.4 °F 88% 29.85 in 10.0 mi South 15.0 mph 24.2 mph N/A   Overcast
3:15 PM 66.2 °F 64.4 °F 94% 29.85 in 10.0 mi South 9.2 mph 24.2 mph N/A   Overcast
3:35 PM 66.2 °F 62.6 °F 88% 29.84 in 10.0 mi South 11.5 mph 21.9 mph N/A   Overcast
3:55 PM 68.0 °F 64.4 °F 88% 29.84 in 10.0 mi South 10.4 mph 20.7 mph N/A   Overcast
4:15 PM 68.0 °F 64.4 °F 88% 29.83 in 10.0 mi South 12.7 mph - N/A   Overcast
4:35 PM 68.0 °F 64.4 °F 88% 29.83 in 10.0 mi South 13.8 mph 20.7 mph N/A   Overcast
4:55 PM 68.0 °F 64.4 °F 88% 29.83 in 10.0 mi South 12.7 mph 21.9 mph N/A   Mostly Cloudy
5:15 PM 68.0 °F 64.4 °F 88% 29.83 in 10.0 mi South 10.4 mph 17.3 mph N/A   Mostly Cloudy
5:35 PM 68.0 °F 64.4 °F 88% 29.82 in 10.0 mi South 12.7 mph 19.6 mph N/A   Mostly Cloudy
6:15 PM 68.0 °F 64.4 °F 88% 29.82 in 10.0 mi South 16.1 mph 23.0 mph N/A   Mostly Cloudy
6:35 PM 68.0 °F 62.6 °F 83% 29.81 in 10.0 mi South 10.4 mph 20.7 mph N/A   Overcast
6:55 PM 68.0 °F 62.6 °F 83% 29.82 in 10.0 mi South 10.4 mph 18.4 mph N/A   Overcast
7:15 PM 68.0 °F 62.6 °F 83% 29.82 in 10.0 mi South 9.2 mph 16.1 mph N/A   Overcast
7:35 PM 66.2 °F 62.6 °F 88% 29.81 in 10.0 mi South 9.2 mph - N/A   Overcast
7:55 PM 68.0 °F 62.6 °F 83% 29.81 in 10.0 mi South 10.4 mph 17.3 mph N/A   Overcast
8:15 PM 66.2 °F 62.6 °F 88% 29.80 in 10.0 mi South 9.2 mph 18.4 mph N/A   Mostly Cloudy
8:35 PM 68.0 °F 62.6 °F 83% 29.79 in 10.0 mi South 13.8 mph 19.6 mph N/A   Mostly Cloudy
8:55 PM 68.0 °F 62.6 °F 83% 29.78 in 10.0 mi South 15.0 mph 23.0 mph N/A   Overcast
9:15 PM 68.0 °F 62.6 °F 83% 29.78 in 10.0 mi South 12.7 mph 25.3 mph N/A   Overcast
9:35 PM 68.0 °F 62.6 °F 83% 29.77 in 9.0 mi South 11.5 mph 23.0 mph N/A   Overcast
9:55 PM 68.0 °F 62.6 °F 83% 29.77 in 10.0 mi South 17.3 mph 28.8 mph N/A   Overcast
10:15 PM 68.0 °F 62.6 °F 83% 29.76 in 10.0 mi South 16.1 mph 26.5 mph N/A   Overcast
10:35 PM 68.0 °F 62.6 °F 83% 29.75 in 10.0 mi South 19.6 mph 33.4 mph N/A   Overcast
11:15 PM 68.0 °F 62.6 °F 83% 29.74 in 10.0 mi South 13.8 mph 36.8 mph N/A   Mostly Cloudy
11:35 PM 68.0 °F 62.6 °F 83% 29.74 in 10.0 mi South 13.8 mph 32.2 mph N/A   Mostly Cloudy